ES'HAIL 2

Last updated on Sat Aug 15 2026 00:03:01 GMT+0000 (Coordinated Universal Time)

1 43700U 18090A 26226.57308275 .00000129 00000+0 00000+0 0 9997 2 43700 0.0124 101.2265 0002508 77.8653 15.9697 1.00272979 28263
UTC large
Height (km)
Speed (km/s)
/
Latitude / Longitude
Inclination (degrees)
Orbital Period (minutes)
Azimuth
Elevation
Range (km)
Doppler Factor

Next 0 passes for location: London (51.5072 / 0.1276)

No passes found over London.
ES'HAIL 2